Time,TemperatureF,DewpointF,PressureIn,WindDirection,WindDirectionDegrees,WindSpeedMPH,WindSpeedGustMPH,Humidity,HourlyPrecipIn,Conditions,Clouds,dailyrainin,SoftwareType,DateUTC
2013-07-17 00:00:00,75.7,71.6,30.22,NNE,18,0.0,0.0,87,0.00,,,0.00,meteobridge,2013-07-17 04:00:00,
2013-07-17 00:01:00,75.7,71.6,30.22,NNE,18,0.0,0.0,87,0.00,,,0.00,meteobridge,2013-07-17 04:01:00,
2013-07-17 00:02:00,75.7,71.6,30.22,NNE,18,0.0,0.0,87,0.00,,,0.00,meteobridge,2013-07-17 04:02:00,
2013-07-17 00:06:00,75.7,71.6,30.22,NNE,18,0.0,0.0,87,0.00,,,0.00,meteobridge,2013-07-17 04:06:00,
2013-07-17 00:11:00,75.6,71.4,30.22,NNE,18,0.0,0.0,87,0.00,,,0.00,meteobridge,2013-07-17 04:11:00,
2013-07-17 00:16:00,75.6,71.8,30.21,NNE,18,0.0,0.0,88,0.00,,,0.00,meteobridge,2013-07-17 04:16:00,
2013-07-17 00:22:00,75.4,71.2,30.21,NNE,18,0.0,0.0,87,0.00,,,0.00,meteobridge,2013-07-17 04:22:00,
2013-07-17 00:27:00,75.4,71.6,30.21,NNE,18,0.0,0.0,88,0.00,,,0.00,meteobridge,2013-07-17 04:27:00,
2013-07-17 00:32:00,75.2,71.4,30.21,NNE,18,0.0,0.0,88,0.00,,,0.00,meteobridge,2013-07-17 04:32:00,
2013-07-17 00:37:00,75.0,71.2,30.22,NNE,18,0.0,0.0,88,0.00,,,0.00,meteobridge,2013-07-17 04:37:00,
2013-07-17 00:42:00,75.0,71.2,30.22,NNE,18,0.0,0.0,88,0.00,,,0.00,meteobridge,2013-07-17 04:42:00,
2013-07-17 00:47:00,75.0,71.2,30.22,NNE,18,0.0,0.0,88,0.00,,,0.00,meteobridge,2013-07-17 04:47:00,
2013-07-17 00:52:00,75.0,71.2,30.22,NNE,18,0.0,0.0,88,0.00,,,0.00,meteobridge,2013-07-17 04:52:00,
2013-07-17 00:57:00,75.0,71.2,30.22,NNE,18,0.0,0.0,88,0.00,,,0.00,meteobridge,2013-07-17 04:57:00,
2013-07-17 00:59:00,75.0,71.6,30.22,NNE,18,0.0,0.0,89,0.00,,,0.00,meteobridge,2013-07-17 04:59:00,
2013-07-17 01:04:00,75.0,71.6,30.22,NNE,18,0.0,0.0,89,0.00,,,0.00,meteobridge,2013-07-17 05:04:00,
2013-07-17 01:09:00,74.8,71.4,30.21,NNE,18,0.0,0.0,89,0.00,,,0.00,meteobridge,2013-07-17 05:09:00,
2013-07-17 01:15:00,74.8,71.4,30.21,NNE,18,0.0,0.0,89,0.00,,,0.00,meteobridge,2013-07-17 05:15:00,
2013-07-17 01:20:00,74.8,71.4,30.21,NNE,18,0.0,0.0,89,0.00,,,0.00,meteobridge,2013-07-17 05:20:00,
2013-07-17 01:25:00,74.8,71.4,30.21,NNE,18,0.0,0.0,89,0.00,,,0.00,meteobridge,2013-07-17 05:25:00,
2013-07-17 01:30:00,74.7,71.2,30.21,NNE,18,0.0,0.0,89,0.00,,,0.00,meteobridge,2013-07-17 05:30:00,
2013-07-17 01:35:00,74.7,71.2,30.21,NNE,18,0.0,0.0,89,0.00,,,0.00,meteobridge,2013-07-17 05:35:00,
2013-07-17 01:40:00,74.7,71.2,30.21,NNE,18,0.0,0.0,89,0.00,,,0.00,meteobridge,2013-07-17 05:40:00,
2013-07-17 01:45:00,74.7,71.2,30.21,NNE,18,0.0,0.0,89,0.00,,,0.00,meteobridge,2013-07-17 05:45:00,
2013-07-17 01:50:00,74.7,71.2,30.21,NNE,18,0.0,0.0,89,0.00,,,0.00,meteobridge,2013-07-17 05:50:00,
2013-07-17 01:56:00,74.5,71.1,30.21,NNE,18,0.0,0.0,89,0.00,,,0.00,meteobridge,2013-07-17 05:56:00,
2013-07-17 02:01:00,74.5,71.1,30.21,NNE,18,0.0,0.0,89,0.00,,,0.00,meteobridge,2013-07-17 06:01:00,
2013-07-17 02:06:00,74.5,71.1,30.21,NNE,18,0.0,0.0,89,0.00,,,0.00,meteobridge,2013-07-17 06:06:00,
2013-07-17 02:11:00,74.5,71.4,30.20,NNE,18,0.0,0.0,90,0.00,,,0.00,meteobridge,2013-07-17 06:11:00,
2013-07-17 02:16:00,74.3,71.2,30.20,NNE,18,0.0,0.0,90,0.00,,,0.00,meteobridge,2013-07-17 06:16:00,
2013-07-17 02:22:00,74.3,71.2,30.21,NNE,18,0.0,0.0,90,0.00,,,0.00,meteobridge,2013-07-17 06:22:00,
2013-07-17 02:27:00,74.1,71.1,30.21,NNE,18,0.0,0.0,90,0.00,,,0.00,meteobridge,2013-07-17 06:27:00,
2013-07-17 02:32:00,74.1,71.1,30.20,NNE,18,0.0,0.0,90,0.00,,,0.00,meteobridge,2013-07-17 06:32:00,
2013-07-17 02:37:00,74.1,71.1,30.20,NNE,18,0.0,0.0,90,0.00,,,0.00,meteobridge,2013-07-17 06:37:00,
2013-07-17 02:42:00,74.1,71.1,30.20,NNE,18,0.0,0.0,90,0.00,,,0.00,meteobridge,2013-07-17 06:42:00,
2013-07-17 02:48:00,74.1,71.2,30.20,NNE,18,0.0,0.0,91,0.00,,,0.00,meteobridge,2013-07-17 06:48:00,
2013-07-17 02:53:00,74.1,71.2,30.20,NNE,18,0.0,0.0,91,0.00,,,0.00,meteobridge,2013-07-17 06:53:00,
2013-07-17 02:58:00,74.1,71.2,30.20,NNE,18,0.0,0.0,91,0.00,,,0.00,meteobridge,2013-07-17 06:58:00,
2013-07-17 03:03:00,74.1,71.2,30.20,NNE,18,0.0,0.0,91,0.00,,,0.00,meteobridge,2013-07-17 07:03:00,
2013-07-17 03:08:00,74.1,71.2,30.20,NNE,18,0.0,0.0,91,0.00,,,0.00,meteobridge,2013-07-17 07:08:00,
2013-07-17 03:13:00,73.9,71.1,30.20,NNE,18,0.0,0.0,91,0.00,,,0.00,meteobridge,2013-07-17 07:13:00,
2013-07-17 03:19:00,73.9,71.1,30.20,NNE,18,0.0,0.0,91,0.00,,,0.00,meteobridge,2013-07-17 07:19:00,
2013-07-17 03:24:00,73.9,71.1,30.20,NNE,18,0.0,0.0,91,0.00,,,0.00,meteobridge,2013-07-17 07:24:00,
2013-07-17 03:29:00,73.9,71.1,30.20,NNE,18,0.0,0.0,91,0.00,,,0.00,meteobridge,2013-07-17 07:29:00,
2013-07-17 03:34:00,73.9,71.1,30.20,NNE,18,0.0,0.0,91,0.00,,,0.00,meteobridge,2013-07-17 07:34:00,
2013-07-17 03:39:00,73.9,71.1,30.20,NNE,18,0.0,0.0,91,0.00,,,0.00,meteobridge,2013-07-17 07:39:00,
2013-07-17 03:45:00,73.9,71.1,30.20,NNE,18,0.0,0.0,91,0.00,,,0.00,meteobridge,2013-07-17 07:45:00,
2013-07-17 03:50:00,73.9,71.4,30.20,NNE,18,0.0,0.0,92,0.00,,,0.00,meteobridge,2013-07-17 07:50:00,
2013-07-17 03:55:00,73.9,71.4,30.20,NNE,18,0.0,0.0,92,0.00,,,0.00,meteobridge,2013-07-17 07:55:00,
2013-07-17 04:00:00,73.9,71.4,30.20,NNE,18,0.0,0.0,92,0.00,,,0.00,meteobridge,2013-07-17 08:00:00,
2013-07-17 04:05:00,73.8,70.9,30.20,NNE,18,0.0,0.0,91,0.00,,,0.00,meteobridge,2013-07-17 08:05:00,
2013-07-17 04:10:00,73.6,71.1,30.20,NNE,18,0.0,0.0,92,0.00,,,0.00,meteobridge,2013-07-17 08:10:00,
2013-07-17 04:15:00,73.6,71.1,30.21,NNE,18,0.0,0.0,92,0.00,,,0.00,meteobridge,2013-07-17 08:15:00,
2013-07-17 04:21:00,73.6,71.1,30.21,NNE,18,0.0,0.0,92,0.00,,,0.00,meteobridge,2013-07-17 08:21:00,
2013-07-17 04:26:00,73.6,71.1,30.21,NNE,18,0.0,0.0,92,0.00,,,0.00,meteobridge,2013-07-17 08:26:00,
2013-07-17 04:31:00,73.4,70.9,30.21,NNE,18,0.0,0.0,92,0.00,,,0.00,meteobridge,2013-07-17 08:31:00,
2013-07-17 04:36:00,73.2,70.7,30.21,NNE,18,0.0,0.0,92,0.00,,,0.00,meteobridge,2013-07-17 08:36:00,
2013-07-17 04:41:00,73.2,70.7,30.21,NNE,18,0.0,0.0,92,0.00,,,0.00,meteobridge,2013-07-17 08:41:00,
2013-07-17 04:46:00,73.0,70.5,30.21,NNE,18,0.0,0.0,92,0.00,,,0.00,meteobridge,2013-07-17 08:46:00,
2013-07-17 04:52:00,73.0,70.5,30.21,NNE,18,0.0,0.0,92,0.00,,,0.00,meteobridge,2013-07-17 08:52:00,
2013-07-17 04:57:00,72.9,70.3,30.21,NNE,18,0.0,0.0,92,0.00,,,0.00,meteobridge,2013-07-17 08:57:00,
2013-07-17 05:02:00,72.9,70.7,30.21,NNE,18,0.0,0.0,93,0.00,,,0.00,meteobridge,2013-07-17 09:02:00,
2013-07-17 05:07:00,72.9,70.7,30.21,NNE,18,0.0,0.0,93,0.00,,,0.00,meteobridge,2013-07-17 09:07:00,
2013-07-17 05:12:00,72.9,70.7,30.21,NNE,18,0.0,0.0,93,0.00,,,0.00,meteobridge,2013-07-17 09:12:00,
2013-07-17 05:17:00,72.9,70.7,30.22,NNE,18,0.0,0.0,93,0.00,,,0.00,meteobridge,2013-07-17 09:17:00,
2013-07-17 05:23:00,72.9,70.7,30.22,NNE,18,0.0,0.0,93,0.00,,,0.00,meteobridge,2013-07-17 09:23:00,
2013-07-17 05:28:00,72.9,70.7,30.22,NNE,18,0.0,0.0,93,0.00,,,0.00,meteobridge,2013-07-17 09:28:00,
2013-07-17 05:33:00,72.9,71.1,30.22,NNE,18,0.0,0.0,94,0.00,,,0.00,meteobridge,2013-07-17 09:33:00,
2013-07-17 05:38:00,72.9,70.7,30.22,NNE,18,0.0,0.0,93,0.00,,,0.00,meteobridge,2013-07-17 09:38:00,
2013-07-17 05:43:00,72.9,70.7,30.22,NNE,18,0.0,0.0,93,0.00,,,0.00,meteobridge,2013-07-17 09:43:00,
2013-07-17 05:49:00,72.9,71.1,30.22,NNE,18,0.0,0.0,94,0.00,,,0.00,meteobridge,2013-07-17 09:49:00,
2013-07-17 05:54:00,72.9,70.7,30.23,NNE,18,0.0,0.0,93,0.00,,,0.00,meteobridge,2013-07-17 09:54:00,
2013-07-17 05:59:00,72.7,70.5,30.23,NNE,18,0.0,0.0,93,0.00,,,0.00,meteobridge,2013-07-17 09:59:00,
2013-07-17 06:04:00,72.7,70.9,30.23,NNE,18,0.0,0.0,94,0.00,,,0.00,meteobridge,2013-07-17 10:04:00,
2013-07-17 06:09:00,72.7,70.9,30.23,NNE,18,0.0,0.0,94,0.00,,,0.00,meteobridge,2013-07-17 10:09:00,
2013-07-17 06:14:00,72.7,70.9,30.23,NNE,18,0.0,0.0,94,0.00,,,0.00,meteobridge,2013-07-17 10:14:00,
2013-07-17 06:20:00,72.9,71.1,30.23,NNE,18,0.0,0.0,94,0.00,,,0.00,meteobridge,2013-07-17 10:20:00,
2013-07-17 06:25:00,72.9,71.1,30.23,NNE,18,0.0,0.0,94,0.00,,,0.00,meteobridge,2013-07-17 10:25:00,
2013-07-17 06:30:00,72.9,71.4,30.23,NNE,18,0.0,0.0,95,0.00,,,0.00,meteobridge,2013-07-17 10:30:00,
2013-07-17 06:35:00,73.0,71.2,30.23,NNE,18,0.0,0.0,94,0.00,,,0.00,meteobridge,2013-07-17 10:35:00,
2013-07-17 06:40:00,73.0,71.2,30.23,NNE,18,0.0,0.0,94,0.00,,,0.00,meteobridge,2013-07-17 10:40:00,
2013-07-17 06:45:00,73.0,71.6,30.23,NNE,18,0.0,0.0,95,0.00,,,0.00,meteobridge,2013-07-17 10:45:00,
2013-07-17 06:50:00,73.2,71.8,30.23,NNE,18,0.0,0.0,95,0.00,,,0.00,meteobridge,2013-07-17 10:50:00,
2013-07-17 06:55:00,73.2,71.8,30.23,NNE,18,0.0,0.0,95,0.00,,,0.00,meteobridge,2013-07-17 10:55:00,
2013-07-17 07:00:00,73.6,72.1,30.24,NNE,18,0.0,0.0,95,0.00,,,0.00,meteobridge,2013-07-17 11:00:00,
2013-07-17 07:06:00,73.8,72.3,30.24,NNE,18,0.0,0.0,95,0.00,,,0.00,meteobridge,2013-07-17 11:06:00,
2013-07-17 07:11:00,73.9,72.1,30.23,NNE,18,0.0,0.0,94,0.00,,,0.00,meteobridge,2013-07-17 11:11:00,
2013-07-17 07:16:00,74.5,72.7,30.23,NNE,18,0.0,0.0,94,0.00,,,0.00,meteobridge,2013-07-17 11:16:00,
2013-07-17 07:21:00,74.7,72.9,30.24,NNE,18,0.9,2.0,94,0.00,,,0.00,meteobridge,2013-07-17 11:21:00,
2013-07-17 07:27:00,75.0,72.9,30.24,NNE,18,0.9,2.9,93,0.00,,,0.00,meteobridge,2013-07-17 11:27:00,
2013-07-17 07:32:00,75.6,73.0,30.24,NNE,18,2.0,2.9,92,0.00,,,0.00,meteobridge,2013-07-17 11:32:00,
2013-07-17 07:37:00,76.3,73.0,30.24,NNE,18,0.0,2.0,90,0.00,,,0.00,meteobridge,2013-07-17 11:37:00,
2013-07-17 07:42:00,76.6,73.4,30.24,NNE,18,0.0,0.0,90,0.00,,,0.00,meteobridge,2013-07-17 11:42:00,
2013-07-17 07:47:00,77.2,73.8,30.24,NNE,18,0.0,0.9,89,0.00,,,0.00,meteobridge,2013-07-17 11:47:00,
2013-07-17 07:52:00,77.7,73.9,30.24,NNE,18,0.0,0.9,88,0.00,,,0.00,meteobridge,2013-07-17 11:52:00,
2013-07-17 07:57:00,78.4,73.9,30.24,NNE,18,0.0,0.9,86,0.00,,,0.00,meteobridge,2013-07-17 11:57:00,
2013-07-17 08:02:00,79.2,73.6,30.24,NNE,18,0.9,2.0,83,0.00,,,0.00,meteobridge,2013-07-17 12:02:00,
2013-07-17 08:07:00,79.9,73.6,30.24,NNE,18,0.0,2.0,81,0.00,,,0.00,meteobridge,2013-07-17 12:07:00,
2013-07-17 08:12:00,80.8,73.6,30.24,North,9,2.9,4.0,79,0.00,,,0.00,meteobridge,2013-07-17 12:12:00,
2013-07-17 08:18:00,81.5,73.6,30.24,NNE,22,0.9,4.0,77,0.00,,,0.00,meteobridge,2013-07-17 12:18:00,
2013-07-17 08:22:00,82.0,74.5,30.24,NNE,22,0.0,0.0,78,0.00,,,0.00,meteobridge,2013-07-17 12:22:00,
2013-07-17 08:28:00,82.4,74.1,30.24,NNE,22,0.0,0.9,76,0.00,,,0.00,meteobridge,2013-07-17 12:28:00,
2013-07-17 08:33:00,82.4,73.8,30.24,NNE,22,0.0,0.0,75,0.00,,,0.00,meteobridge,2013-07-17 12:33:00,
2013-07-17 08:38:00,82.8,74.5,30.24,NNE,22,0.0,0.9,76,0.00,,,0.00,meteobridge,2013-07-17 12:38:00,
2013-07-17 08:43:00,83.1,73.6,30.24,NNE,22,0.9,2.9,73,0.00,,,0.00,meteobridge,2013-07-17 12:43:00,
2013-07-17 08:48:00,83.7,74.1,30.24,NNE,22,0.9,4.0,73,0.00,,,0.00,meteobridge,2013-07-17 12:48:00,
2013-07-17 08:53:00,84.2,74.1,30.24,NNE,22,2.9,2.9,72,0.00,,,0.00,meteobridge,2013-07-17 12:53:00,
2013-07-17 08:58:00,84.6,75.0,30.24,NNE,22,0.0,2.0,73,0.00,,,0.00,meteobridge,2013-07-17 12:58:00,
2013-07-17 09:04:00,84.7,73.9,30.24,NNE,22,0.9,2.9,70,0.00,,,0.00,meteobridge,2013-07-17 13:04:00,
2013-07-17 09:09:00,85.1,73.8,30.24,NNE,22,0.0,4.0,69,0.00,,,0.00,meteobridge,2013-07-17 13:09:00,
2013-07-17 09:14:00,85.5,73.8,30.24,NNE,13,2.9,6.0,68,0.00,,,0.00,meteobridge,2013-07-17 13:14:00,
2013-07-17 09:19:00,86.4,73.6,30.24,NNE,16,2.9,4.9,66,0.00,,,0.00,meteobridge,2013-07-17 13:19:00,
2013-07-17 09:24:00,87.1,75.2,30.24,NNE,16,2.9,2.9,68,0.00,,,0.00,meteobridge,2013-07-17 13:24:00,
2013-07-17 09:29:00,87.4,74.3,30.24,NNE,15,0.0,2.0,65,0.00,,,0.00,meteobridge,2013-07-17 13:29:00,
2013-07-17 09:34:00,88.0,75.6,30.24,NNE,15,0.0,0.9,67,0.00,,,0.00,meteobridge,2013-07-17 13:34:00,
2013-07-17 09:39:00,88.3,75.0,30.24,NNE,15,0.9,0.9,65,0.00,,,0.00,meteobridge,2013-07-17 13:39:00,
2013-07-17 09:44:00,88.9,76.5,30.24,SE,146,0.0,2.0,67,0.00,,,0.00,meteobridge,2013-07-17 13:44:00,
2013-07-17 09:49:00,89.1,74.8,30.24,South,179,0.0,2.0,63,0.00,,,0.00,meteobridge,2013-07-17 13:49:00,
2013-07-17 09:54:00,89.2,75.4,30.24,South,179,0.0,0.9,64,0.00,,,0.00,meteobridge,2013-07-17 13:54:00,
2013-07-17 10:00:00,89.8,75.9,30.24,ESE,122,0.0,0.9,64,0.00,,,0.00,meteobridge,2013-07-17 14:00:00,
2013-07-17 10:05:00,90.0,74.1,30.24,NNW,342,0.0,4.9,60,0.00,,,0.00,meteobridge,2013-07-17 14:05:00,
2013-07-17 10:10:00,90.3,75.0,30.24,North,350,0.9,2.0,61,0.00,,,0.00,meteobridge,2013-07-17 14:10:00,
2013-07-17 10:15:00,90.9,75.0,30.24,East,79,2.0,4.0,60,0.00,,,0.00,meteobridge,2013-07-17 14:15:00,
2013-07-17 10:20:00,91.4,73.4,30.24,NE,47,2.0,4.9,56,0.00,,,0.00,meteobridge,2013-07-17 14:20:00,
2013-07-17 10:25:00,91.6,75.7,30.24,NNE,21,0.0,0.9,60,0.00,,,0.00,meteobridge,2013-07-17 14:25:00,
2013-07-17 10:30:00,91.8,74.8,30.24,NE,34,0.9,4.0,58,0.00,,,0.00,meteobridge,2013-07-17 14:30:00,
2013-07-17 10:35:00,91.8,74.8,30.24,NE,36,0.0,4.0,58,0.00,,,0.00,meteobridge,2013-07-17 14:35:00,
2013-07-17 10:40:00,92.1,73.6,30.24,NE,50,2.9,2.9,55,0.00,,,0.00,meteobridge,2013-07-17 14:40:00,
2013-07-17 10:45:00,92.1,75.2,30.24,NE,36,0.9,2.9,58,0.00,,,0.00,meteobridge,2013-07-17 14:45:00,
2013-07-17 10:50:00,92.1,73.6,30.24,NE,36,0.9,2.0,55,0.00,,,0.00,meteobridge,2013-07-17 14:50:00,
2013-07-17 10:55:00,92.7,75.2,30.24,NE,53,0.0,0.9,57,0.00,,,0.00,meteobridge,2013-07-17 14:55:00,
2013-07-17 11:00:00,93.0,75.0,30.24,NE,49,2.0,2.0,56,0.00,,,0.00,meteobridge,2013-07-17 15:00:00,
2013-07-17 11:05:00,93.6,74.5,30.24,NE,49,0.9,0.9,54,0.00,,,0.00,meteobridge,2013-07-17 15:05:00,
2013-07-17 11:11:00,93.9,73.0,30.24,NNE,17,2.9,6.0,51,0.00,,,0.00,meteobridge,2013-07-17 15:11:00,
2013-07-17 11:16:00,93.9,73.6,30.24,NNE,15,0.0,2.0,52,0.00,,,0.00,meteobridge,2013-07-17 15:16:00,
2013-07-17 11:21:00,93.9,74.1,30.24,NNW,329,0.9,4.9,53,0.00,,,0.00,meteobridge,2013-07-17 15:21:00,
2013-07-17 11:26:00,94.1,73.2,30.24,NNE,27,0.0,2.9,51,0.00,,,0.00,meteobridge,2013-07-17 15:26:00,
2013-07-17 11:31:00,94.1,73.8,30.24,NNE,19,4.9,6.0,52,0.00,,,0.00,meteobridge,2013-07-17 15:31:00,
2013-07-17 11:36:00,94.3,75.0,30.23,NE,42,0.9,2.0,54,0.00,,,0.00,meteobridge,2013-07-17 15:36:00,
2013-07-17 11:41:00,94.8,73.9,30.23,NE,47,2.0,2.9,51,0.00,,,0.00,meteobridge,2013-07-17 15:41:00,
2013-07-17 11:46:00,94.8,74.5,30.23,ENE,59,0.9,2.9,52,0.00,,,0.00,meteobridge,2013-07-17 15:46:00,
2013-07-17 11:51:00,94.6,75.4,30.23,ENE,59,0.0,0.9,54,0.00,,,0.00,meteobridge,2013-07-17 15:51:00,
2013-07-17 11:56:00,95.0,75.2,30.23,SE,140,0.0,0.9,53,0.00,,,0.00,meteobridge,2013-07-17 15:56:00,
2013-07-17 12:01:00,95.5,74.5,30.23,NNE,17,0.9,4.0,51,0.00,,,0.00,meteobridge,2013-07-17 16:01:00,
2013-07-17 12:06:00,96.1,73.8,30.23,East,92,2.0,2.9,49,0.00,,,0.00,meteobridge,2013-07-17 16:06:00,
2013-07-17 12:11:00,96.1,73.2,30.22,NE,50,2.0,4.0,48,0.00,,,0.00,meteobridge,2013-07-17 16:11:00,
2013-07-17 12:16:00,96.1,72.5,30.22,NNE,26,0.9,4.9,47,0.00,,,0.00,meteobridge,2013-07-17 16:16:00,
2013-07-17 12:21:00,96.3,74.7,30.22,ENE,70,0.9,0.9,50,0.00,,,0.00,meteobridge,2013-07-17 16:21:00,
2013-07-17 12:26:00,96.3,73.9,30.22,East,89,0.9,0.9,49,0.00,,,0.00,meteobridge,2013-07-17 16:26:00,
2013-07-17 12:31:00,96.4,73.6,30.22,North,10,2.9,4.9,48,0.00,,,0.00,meteobridge,2013-07-17 16:31:00,
2013-07-17 12:36:00,97.0,73.9,30.22,North,5,0.0,2.0,48,0.00,,,0.00,meteobridge,2013-07-17 16:36:00,
2013-07-17 12:41:00,97.2,72.9,30.22,NNE,19,2.0,6.0,46,0.00,,,0.00,meteobridge,2013-07-17 16:41:00,
2013-07-17 12:47:00,97.5,74.5,30.22,NNE,31,0.0,2.9,48,0.00,,,0.00,meteobridge,2013-07-17 16:47:00,
2013-07-17 12:52:00,97.5,73.9,30.22,SSW,196,2.0,4.0,47,0.00,,,0.00,meteobridge,2013-07-17 16:52:00,
2013-07-17 12:57:00,97.0,73.9,30.22,SE,140,0.0,4.0,48,0.00,,,0.00,meteobridge,2013-07-17 16:57:00,
2013-07-17 13:02:00,96.6,73.8,30.21,North,10,2.0,4.9,48,0.00,,,0.00,meteobridge,2013-07-17 17:02:00,
2013-07-17 13:07:00,96.8,72.7,30.21,NE,48,2.0,4.0,46,0.00,,,0.00,meteobridge,2013-07-17 17:07:00,
2013-07-17 13:12:00,97.0,72.7,30.21,South,175,0.9,6.9,46,0.00,,,0.00,meteobridge,2013-07-17 17:12:00,
2013-07-17 13:17:00,96.3,72.1,30.21,WNW,301,2.0,4.0,46,0.00,,,0.00,meteobridge,2013-07-17 17:17:00,
2013-07-17 13:22:00,96.4,73.6,30.21,South,187,2.9,4.0,48,0.00,,,0.00,meteobridge,2013-07-17 17:22:00,
2013-07-17 13:27:00,96.1,72.0,30.21,SE,132,2.0,4.9,46,0.00,,,0.00,meteobridge,2013-07-17 17:27:00,
2013-07-17 13:32:00,95.5,72.7,30.21,SE,138,4.0,4.9,48,0.00,,,0.00,meteobridge,2013-07-17 17:32:00,
2013-07-17 13:37:00,95.4,73.2,30.21,East,89,0.0,6.9,49,0.00,,,0.00,meteobridge,2013-07-17 17:37:00,
2013-07-17 13:42:00,94.8,73.2,30.20,NE,49,0.9,2.9,50,0.00,,,0.00,meteobridge,2013-07-17 17:42:00,
2013-07-17 13:47:00,94.8,73.9,30.20,SE,142,4.0,4.0,51,0.00,,,0.00,meteobridge,2013-07-17 17:47:00,
2013-07-17 13:52:00,94.8,73.2,30.20,NE,54,0.9,4.0,50,0.00,,,0.00,meteobridge,2013-07-17 17:52:00,
2013-07-17 13:57:00,95.5,74.5,30.20,ENE,57,2.9,2.9,51,0.00,,,0.00,meteobridge,2013-07-17 17:57:00,
2013-07-17 14:02:00,95.9,72.5,30.20,SE,133,4.0,6.0,47,0.00,,,0.00,meteobridge,2013-07-17 18:02:00,
2013-07-17 14:07:00,95.5,73.9,30.20,South,187,2.9,8.1,50,0.00,,,0.00,meteobridge,2013-07-17 18:07:00,
2013-07-17 14:12:00,95.2,73.6,30.20,SSE,164,6.9,6.9,50,0.00,,,0.00,meteobridge,2013-07-17 18:12:00,
2013-07-17 14:17:00,94.8,73.9,30.19,South,175,4.0,6.0,51,0.00,,,0.00,meteobridge,2013-07-17 18:17:00,
2013-07-17 14:23:00,94.6,75.4,30.19,SSE,155,0.0,4.0,54,0.00,,,0.00,meteobridge,2013-07-17 18:23:00,
2013-07-17 14:28:00,94.6,72.5,30.19,SSE,162,0.9,4.9,49,0.00,,,0.00,meteobridge,2013-07-17 18:28:00,
2013-07-17 14:33:00,94.8,73.9,30.19,SW,225,0.9,4.0,51,0.00,,,0.00,meteobridge,2013-07-17 18:33:00,
2013-07-17 14:38:00,95.2,73.0,30.19,South,169,2.0,6.0,49,0.00,,,0.00,meteobridge,2013-07-17 18:38:00,
2013-07-17 14:43:00,95.2,73.6,30.19,SE,134,0.0,4.9,50,0.00,,,0.00,meteobridge,2013-07-17 18:43:00,
2013-07-17 14:48:00,95.4,72.5,30.19,ESE,118,0.9,4.0,48,0.00,,,0.00,meteobridge,2013-07-17 18:48:00,
2013-07-17 14:53:00,95.5,71.4,30.19,SSE,159,4.0,4.9,46,0.00,,,0.00,meteobridge,2013-07-17 18:53:00,
2013-07-17 14:58:00,95.2,72.3,30.19,ESE,115,2.0,6.0,48,0.00,,,0.00,meteobridge,2013-07-17 18:58:00,
2013-07-17 15:03:00,95.2,73.0,30.19,NE,46,0.0,0.9,49,0.00,,,0.00,meteobridge,2013-07-17 19:03:00,
2013-07-17 15:08:00,94.8,72.7,30.18,SSE,148,0.0,8.9,49,0.00,,,0.00,meteobridge,2013-07-17 19:08:00,
2013-07-17 15:13:00,94.3,73.4,30.18,SE,142,2.0,4.9,51,0.00,,,0.00,meteobridge,2013-07-17 19:13:00,
2013-07-17 15:18:00,94.1,72.7,30.18,SSE,154,2.0,6.9,50,0.00,,,0.00,meteobridge,2013-07-17 19:18:00,
2013-07-17 15:23:00,93.7,72.9,30.18,South,184,2.0,6.0,51,0.00,,,0.00,meteobridge,2013-07-17 19:23:00,
2013-07-17 15:28:00,93.7,73.4,30.18,SE,141,2.0,4.0,52,0.00,,,0.00,meteobridge,2013-07-17 19:28:00,
2013-07-17 15:33:00,93.9,72.5,30.17,SE,127,4.0,6.9,50,0.00,,,0.00,meteobridge,2013-07-17 19:33:00,
2013-07-17 15:38:00,93.6,72.1,30.17,SSW,197,2.9,6.0,50,0.00,,,0.00,meteobridge,2013-07-17 19:38:00,
2013-07-17 15:44:00,93.0,72.1,30.17,SE,126,6.9,6.9,51,0.00,,,0.00,meteobridge,2013-07-17 19:44:00,
2013-07-17 15:49:00,92.7,72.5,30.17,South,187,2.9,8.1,52,0.00,,,0.00,meteobridge,2013-07-17 19:49:00,
2013-07-17 15:54:00,92.7,72.5,30.17,East,89,0.0,4.0,52,0.00,,,0.00,meteobridge,2013-07-17 19:54:00,
2013-07-17 15:59:00,92.7,73.0,30.17,ENE,78,0.0,2.0,53,0.00,,,0.00,meteobridge,2013-07-17 19:59:00,
2013-07-17 16:04:00,92.8,71.4,30.16,South,188,2.9,6.9,50,0.00,,,0.00,meteobridge,2013-07-17 20:04:00,
2013-07-17 16:09:00,92.5,71.8,30.16,South,173,4.9,6.0,51,0.00,,,0.00,meteobridge,2013-07-17 20:09:00,
2013-07-17 16:14:00,91.9,71.8,30.16,WSW,244,0.9,8.1,52,0.00,,,0.00,meteobridge,2013-07-17 20:14:00,
2013-07-17 16:19:00,91.9,72.3,30.16,ESE,116,0.0,4.9,53,0.00,,,0.00,meteobridge,2013-07-17 20:19:00,
2013-07-17 16:24:00,91.9,72.9,30.16,SW,217,0.0,4.0,54,0.00,,,0.00,meteobridge,2013-07-17 20:24:00,
2013-07-17 16:29:00,91.8,72.7,30.16,SSE,157,0.9,6.9,54,0.00,,,0.00,meteobridge,2013-07-17 20:29:00,
2013-07-17 16:34:00,91.6,72.5,30.16,SSE,150,4.0,6.9,54,0.00,,,0.00,meteobridge,2013-07-17 20:34:00,
2013-07-17 16:39:00,91.2,72.9,30.16,SE,144,2.0,4.0,55,0.00,,,0.00,meteobridge,2013-07-17 20:39:00,
2013-07-17 16:44:00,90.9,72.5,30.15,ESE,123,0.9,8.1,55,0.00,,,0.00,meteobridge,2013-07-17 20:44:00,
2013-07-17 16:49:00,90.3,72.0,30.15,SSE,165,0.9,6.9,55,0.00,,,0.00,meteobridge,2013-07-17 20:49:00,
2013-07-17 16:54:00,90.0,72.1,30.15,South,188,0.9,4.0,56,0.00,,,0.00,meteobridge,2013-07-17 20:54:00,
2013-07-17 16:59:00,90.0,72.1,30.15,SE,136,0.9,4.0,56,0.00,,,0.00,meteobridge,2013-07-17 20:59:00,
2013-07-17 17:04:00,90.3,74.1,30.15,WSW,240,0.9,2.0,59,0.00,,,0.00,meteobridge,2013-07-17 21:04:00,
2013-07-17 17:09:00,90.5,72.7,30.15,South,170,4.0,11.0,56,0.00,,,0.00,meteobridge,2013-07-17 21:09:00,
2013-07-17 17:14:00,90.0,71.6,30.15,SSE,152,2.0,6.0,55,0.00,,,0.00,meteobridge,2013-07-17 21:14:00,
2013-07-17 17:19:00,89.4,71.6,30.14,South,186,2.9,6.9,56,0.00,,,0.00,meteobridge,2013-07-17 21:19:00,
2013-07-17 17:24:00,88.9,72.1,30.14,SSE,148,0.9,4.9,58,0.00,,,0.00,meteobridge,2013-07-17 21:24:00,
2013-07-17 17:29:00,88.7,71.4,30.14,South,174,2.0,4.9,57,0.00,,,0.00,meteobridge,2013-07-17 21:29:00,
2013-07-17 17:35:00,88.5,71.4,30.14,SW,223,4.0,4.9,57,0.00,,,0.00,meteobridge,2013-07-17 21:35:00,
2013-07-17 17:40:00,88.3,71.2,30.14,SSW,211,2.0,8.1,57,0.00,,,0.00,meteobridge,2013-07-17 21:40:00,
2013-07-17 17:45:00,88.2,71.1,30.14,South,169,0.9,6.9,57,0.00,,,0.00,meteobridge,2013-07-17 21:45:00,
2013-07-17 17:50:00,88.0,70.3,30.14,SSE,154,2.0,8.1,56,0.00,,,0.00,meteobridge,2013-07-17 21:50:00,
2013-07-17 17:55:00,87.8,70.2,30.14,South,180,0.9,6.0,56,0.00,,,0.00,meteobridge,2013-07-17 21:55:00,
2013-07-17 18:00:00,87.8,71.6,30.14,SSW,192,2.9,4.9,59,0.00,,,0.00,meteobridge,2013-07-17 22:00:00,
2013-07-17 18:05:00,87.8,71.2,30.14,SSE,155,2.0,6.0,58,0.00,,,0.00,meteobridge,2013-07-17 22:05:00,
2013-07-17 18:10:00,87.8,72.7,30.14,SE,146,0.0,2.0,61,0.00,,,0.00,meteobridge,2013-07-17 22:10:00,
2013-07-17 18:15:00,87.6,71.6,30.14,SSW,211,0.0,4.0,59,0.00,,,0.00,meteobridge,2013-07-17 22:15:00,
2013-07-17 18:20:00,87.4,72.3,30.14,SW,236,0.9,2.9,61,0.00,,,0.00,meteobridge,2013-07-17 22:20:00,
2013-07-17 18:25:00,87.3,70.7,30.14,South,172,0.9,4.0,58,0.00,,,0.00,meteobridge,2013-07-17 22:25:00,
2013-07-17 18:30:00,87.3,72.1,30.14,South,171,4.0,4.0,61,0.00,,,0.00,meteobridge,2013-07-17 22:30:00,
2013-07-17 18:36:00,87.1,72.9,30.14,SSE,160,0.9,0.9,63,0.00,,,0.00,meteobridge,2013-07-17 22:36:00,
2013-07-17 18:41:00,86.9,72.9,30.14,SW,230,0.0,2.0,63,0.00,,,0.00,meteobridge,2013-07-17 22:41:00,
2013-07-17 18:46:00,86.7,73.0,30.14,South,175,0.0,4.9,64,0.00,,,0.00,meteobridge,2013-07-17 22:46:00,
2013-07-17 18:51:00,86.7,72.7,30.14,SSW,194,2.0,2.9,63,0.00,,,0.00,meteobridge,2013-07-17 22:51:00,
2013-07-17 18:56:00,86.5,71.1,30.14,SE,130,0.9,8.1,60,0.00,,,0.00,meteobridge,2013-07-17 22:56:00,
2013-07-17 19:01:00,86.5,72.0,30.14,SE,146,0.9,4.9,62,0.00,,,0.00,meteobridge,2013-07-17 23:01:00,
2013-07-17 19:06:00,86.4,71.2,30.14,WSW,244,2.9,6.0,61,0.00,,,0.00,meteobridge,2013-07-17 23:06:00,
2013-07-17 19:11:00,86.4,71.8,30.14,SSW,199,6.9,10.1,62,0.00,,,0.00,meteobridge,2013-07-17 23:11:00,
2013-07-17 19:16:00,86.2,71.6,30.14,SSE,160,2.0,2.0,62,0.00,,,0.00,meteobridge,2013-07-17 23:16:00,
2013-07-17 19:21:00,86.2,71.6,30.14,SW,236,0.9,4.9,62,0.00,,,0.00,meteobridge,2013-07-17 23:21:00,
2013-07-17 19:26:00,86.0,72.0,30.14,SW,226,4.9,4.9,63,0.00,,,0.00,meteobridge,2013-07-17 23:26:00,
2013-07-17 19:31:00,86.0,72.0,30.14,SSW,195,2.9,2.9,63,0.00,,,0.00,meteobridge,2013-07-17 23:31:00,
2013-07-17 19:36:00,85.8,71.8,30.14,SE,144,2.0,4.9,63,0.00,,,0.00,meteobridge,2013-07-17 23:36:00,
2013-07-17 19:41:00,85.8,71.8,30.14,SE,135,0.0,2.0,63,0.00,,,0.00,meteobridge,2013-07-17 23:41:00,
2013-07-17 19:46:00,85.6,71.6,30.14,WSW,237,2.0,2.9,63,0.00,,,0.00,meteobridge,2013-07-17 23:46:00,
2013-07-17 19:51:00,85.6,71.6,30.14,SSW,195,0.9,2.0,63,0.00,,,0.00,meteobridge,2013-07-17 23:51:00,
2013-07-17 19:56:00,85.5,71.4,30.14,SW,224,0.0,0.0,63,0.00,,,0.00,meteobridge,2013-07-17 23:56:00,
2013-07-17 20:01:00,85.3,71.8,30.14,SW,224,0.0,2.0,64,0.00,,,0.00,meteobridge,2013-07-18 00:01:00,
2013-07-17 20:07:00,85.1,71.1,30.14,South,186,0.0,4.0,63,0.00,,,0.00,meteobridge,2013-07-18 00:07:00,
2013-07-17 20:12:00,84.9,71.4,30.14,SW,229,0.0,2.9,64,0.00,,,0.00,meteobridge,2013-07-18 00:12:00,
2013-07-17 20:17:00,84.7,71.2,30.14,SSE,161,0.0,0.0,64,0.00,,,0.00,meteobridge,2013-07-18 00:17:00,
2013-07-17 20:22:00,84.7,71.2,30.14,SSE,161,0.0,0.9,64,0.00,,,0.00,meteobridge,2013-07-18 00:22:00,
2013-07-17 20:27:00,84.6,71.4,30.14,SSE,163,0.0,0.9,65,0.00,,,0.00,meteobridge,2013-07-18 00:27:00,
2013-07-17 20:32:00,84.4,71.2,30.14,SSE,163,0.0,0.9,65,0.00,,,0.00,meteobridge,2013-07-18 00:32:00,
2013-07-17 20:37:00,84.0,72.0,30.13,SSE,162,0.9,0.9,67,0.00,,,0.00,meteobridge,2013-07-18 00:37:00,
2013-07-17 20:42:00,83.8,72.1,30.14,SSE,162,0.0,0.9,68,0.00,,,0.00,meteobridge,2013-07-18 00:42:00,
2013-07-17 20:48:00,83.5,71.8,30.13,SSW,211,0.0,4.0,68,0.00,,,0.00,meteobridge,2013-07-18 00:48:00,
2013-07-17 20:53:00,83.3,72.1,30.13,SSW,211,0.0,0.9,69,0.00,,,0.00,meteobridge,2013-07-18 00:53:00,
2013-07-17 20:58:00,83.1,72.0,30.13,SW,223,0.9,0.9,69,0.00,,,0.00,meteobridge,2013-07-18 00:58:00,
2013-07-17 21:03:00,82.9,72.1,30.14,West,261,0.9,0.9,70,0.00,,,0.00,meteobridge,2013-07-18 01:03:00,
2013-07-17 21:08:00,82.9,72.5,30.13,West,259,0.0,0.9,71,0.00,,,0.00,meteobridge,2013-07-18 01:08:00,
2013-07-17 21:13:00,82.8,72.3,30.14,SSW,207,0.0,0.0,71,0.00,,,0.00,meteobridge,2013-07-18 01:13:00,
2013-07-17 21:18:00,82.6,72.7,30.14,SSW,209,2.0,2.0,72,0.00,,,0.00,meteobridge,2013-07-18 01:18:00,
2013-07-17 21:23:00,82.6,72.1,30.14,SSW,195,0.0,2.9,71,0.00,,,0.00,meteobridge,2013-07-18 01:23:00,
2013-07-17 21:28:00,82.4,72.5,30.13,South,169,2.0,6.0,72,0.00,,,0.00,meteobridge,2013-07-18 01:28:00,
2013-07-17 21:33:00,82.2,72.3,30.13,SW,222,0.9,2.0,72,0.00,,,0.00,meteobridge,2013-07-18 01:33:00,
2013-07-17 21:38:00,82.2,72.0,30.13,West,275,0.9,4.0,71,0.00,,,0.00,meteobridge,2013-07-18 01:38:00,
2013-07-17 21:43:00,82.2,72.0,30.14,West,271,2.9,6.9,71,0.00,,,0.00,meteobridge,2013-07-18 01:43:00,
2013-07-17 21:48:00,82.2,72.0,30.14,SW,228,0.0,2.9,71,0.00,,,0.00,meteobridge,2013-07-18 01:48:00,
2013-07-17 21:54:00,82.2,71.1,30.14,SSW,201,0.0,4.0,69,0.00,,,0.00,meteobridge,2013-07-18 01:54:00,
2013-07-17 21:59:00,82.2,71.4,30.14,SW,223,0.9,4.0,70,0.00,,,0.00,meteobridge,2013-07-18 01:59:00,
2013-07-17 22:04:00,82.0,70.9,30.14,SSW,209,0.0,4.9,69,0.00,,,0.00,meteobridge,2013-07-18 02:04:00,
2013-07-17 22:09:00,82.0,70.9,30.14,SW,221,0.0,2.9,69,0.00,,,0.00,meteobridge,2013-07-18 02:09:00,
2013-07-17 22:14:00,82.0,70.9,30.14,WSW,246,2.9,4.0,69,0.00,,,0.00,meteobridge,2013-07-18 02:14:00,
2013-07-17 22:19:00,82.0,70.9,30.14,WSW,254,0.0,0.0,69,0.00,,,0.00,meteobridge,2013-07-18 02:19:00,
2013-07-17 22:24:00,81.9,71.1,30.15,WSW,254,0.0,0.0,70,0.00,,,0.00,meteobridge,2013-07-18 02:24:00,
2013-07-17 22:29:00,81.7,70.9,30.15,WSW,254,0.9,0.9,70,0.00,,,0.00,meteobridge,2013-07-18 02:29:00,
2013-07-17 22:35:00,81.7,71.4,30.15,WSW,254,0.0,0.9,71,0.00,,,0.00,meteobridge,2013-07-18 02:35:00,
2013-07-17 22:40:00,81.5,71.2,30.15,WSW,254,0.0,0.0,71,0.00,,,0.00,meteobridge,2013-07-18 02:40:00,
2013-07-17 22:45:00,81.3,71.4,30.15,SSW,211,0.0,0.9,72,0.00,,,0.00,meteobridge,2013-07-18 02:45:00,
2013-07-17 22:50:00,81.1,71.6,30.15,WSW,252,0.9,0.9,73,0.00,,,0.00,meteobridge,2013-07-18 02:50:00,
2013-07-17 22:55:00,81.0,71.4,30.14,SSW,193,0.0,0.9,73,0.00,,,0.00,meteobridge,2013-07-18 02:55:00,
2013-07-17 23:00:00,81.0,71.4,30.14,South,190,0.9,2.0,73,0.00,,,0.00,meteobridge,2013-07-18 03:00:00,
2013-07-17 23:05:00,81.0,71.4,30.14,SW,231,2.0,2.0,73,0.00,,,0.00,meteobridge,2013-07-18 03:05:00,
2013-07-17 23:11:00,80.8,71.2,30.14,SW,231,0.0,2.0,73,0.00,,,0.00,meteobridge,2013-07-18 03:11:00,
2013-07-17 23:15:00,80.8,71.2,30.14,West,269,0.0,0.9,73,0.00,,,0.00,meteobridge,2013-07-18 03:15:00,
2013-07-17 23:20:00,80.8,71.2,30.14,West,269,0.0,0.0,73,0.00,,,0.00,meteobridge,2013-07-18 03:20:00,
2013-07-17 23:25:00,80.4,71.4,30.14,NNW,328,0.0,0.0,74,0.00,,,0.00,meteobridge,2013-07-18 03:25:00,
2013-07-17 23:30:00,80.4,71.4,30.14,NNW,328,0.0,2.0,74,0.00,,,0.00,meteobridge,2013-07-18 03:30:00,
2013-07-17 23:35:00,80.2,71.2,30.14,NNW,328,0.9,2.0,74,0.00,,,0.00,meteobridge,2013-07-18 03:35:00,
2013-07-17 23:40:00,80.2,71.6,30.14,NW,318,0.0,2.0,75,0.00,,,0.00,meteobridge,2013-07-18 03:40:00,
2013-07-17 23:46:00,80.2,71.6,30.14,NW,318,0.9,0.9,75,0.00,,,0.00,meteobridge,2013-07-18 03:46:00,
2013-07-17 23:51:00,80.1,71.4,30.14,NW,318,0.0,0.9,75,0.00,,,0.00,meteobridge,2013-07-18 03:51:00,
2013-07-17 23:56:00,80.1,71.4,30.14,West,267,0.0,2.0,75,0.00,,,0.00,meteobridge,2013-07-18 03:56:00,